| time (UTC) | temp F | wind direction | speed MPH | gust MPH | rain 1hr in | rain 24hr in | rain mn in | humidity % | barometer mb |
| 20260503201601 | 65 | 234 | 11.0 | 21.0 | 0.00 | 0.00 | 0.00 | 52 | 1003.2 |
| 20260503200025 | 64 | 227 | 14.0 | 23.0 | 0.00 | 0.00 | 0.00 | 49 | 1003.6 |
| 20260503194618 | 64 | 194 | 12.0 | 26.0 | 0.00 | 0.00 | 0.00 | 51 | 1003.7 |
| 20260503193058 | 64 | 231 | 13.0 | 25.0 | 0.00 | 0.00 | 0.00 | 49 | 1004.0 |
| 20260503191541 | 64 | 227 | 14.0 | 22.0 | 0.00 | 0.00 | 0.00 | 47 | 1004.0 |
| 20260503190123 | 64 | 223 | 13.0 | 24.0 | 0.00 | 0.00 | 0.00 | 46 | 1004.1 |
| 20260503184552 | 63 | 290 | 12.0 | 24.0 | 0.00 | 0.00 | 0.00 | 47 | 1004.2 |
| 20260503183036 | 63 | 234 | 14.0 | 23.0 | 0.00 | 0.00 | 0.00 | 47 | 1004.2 |
| 20260503181621 | 62 | 226 | 12.0 | 30.0 | 0.00 | 0.00 | 0.00 | 48 | 1004.5 |
| 20260503180109 | 62 | 216 | 7.0 | 21.0 | 0.00 | 0.00 | 0.00 | 56 | 1004.9 |
| 20260503174518 | 61 | 208 | 12.0 | 21.0 | 0.00 | 0.00 | 0.00 | 55 | 1005.2 |
| 20260503173003 | 61 | 200 | 11.0 | 24.0 | 0.00 | 0.00 | 0.00 | 55 | 1005.6 |
| 20260503171602 | 59 | 179 | 12.0 | 26.0 | 0.00 | 0.00 | 0.00 | 55 | 1005.9 |
| 20260503160123 | 53 | 184 | 7.0 | 14.0 | 0.00 | 0.00 | 0.00 | 73 | 1007.2 |
| 20260503130120 | 52 | 246 | 9.0 | 17.0 | 0.00 | 0.00 | 0.00 | 59 | 1008.6 |
| 20260503100113 | 48 | 224 | 6.0 | 11.0 | 0.00 | 0.00 | 0.00 | 57 | 1009.6 |
| 20260503081600 | 48 | 234 | 4.0 | 10.0 | 0.00 | 0.00 | 0.00 | 58 | 1010.2 |
| 20260503071555 | 47 | 236 | 3.0 | 6.0 | 0.00 | 0.00 | 0.00 | 60 | 1010.8 |
| 20260503060137 | 45 | 221 | 2.0 | 4.0 | 0.00 | 0.00 | 0.00 | 63 | 1011.3 |
| 20260503054553 | 45 | 205 | 1.0 | 3.0 | 0.00 | 0.00 | 0.00 | 62 | 1011.4 |
| 20260503053006 | 45 | 202 | 2.0 | 4.0 | 0.00 | 0.00 | 0.00 | 62 | 1011.6 |
| 20260503051608 | 45 | 227 | 1.0 | 4.0 | 0.00 | 0.00 | 0.00 | 61 | 1011.7 |
| 20260503050038 | 46 | 221 | 2.0 | 5.0 | 0.00 | 0.00 | 0.00 | 60 | 1011.9 |
| 20260503044607 | 46 | 240 | 2.0 | 4.0 | 0.00 | 0.00 | 0.00 | 61 | 1011.8 |
| 20260503043050 | 46 | 252 | 1.0 | 4.0 | 0.00 | 0.00 | 0.00 | 61 | 1011.9 |
| 20260503041514 | 46 | 244 | 1.0 | 4.0 | 0.00 | 0.00 | 0.00 | 61 | 1012.0 |
| 20260503040121 | 44 | 263 | 1.0 | 3.0 | 0.00 | 0.00 | 0.00 | 65 | 1012.1 |
| 20260503034549 | 42 | 279 | 0.0 | 1.0 | 0.00 | 0.00 | 0.00 | 72 | 1012.3 |
| 20260503033036 | 41 | 238 | 0.0 | 0.0 | 0.00 | 0.00 | 0.00 | 75 | 1012.4 |
| 20260503031619 | 40 | 238 | 0.0 | 0.0 | 0.00 | 0.00 | 0.00 | 77 | 1012.4 |
| 20260503030101 | 41 | 238 | 0.0 | 0.0 | 0.00 | 0.00 | 0.00 | 74 | 1012.7 |
| 20260503024517 | 42 | 238 | 0.0 | 0.0 | 0.00 | 0.00 | 0.00 | 73 | 1012.6 |
| 20260503023002 | 43 | 238 | 0.0 | 0.0 | 0.00 | 0.00 | 0.00 | 70 | 1012.7 |
| 20260503021605 | 45 | 238 | 0.0 | 0.0 | 0.00 | 0.00 | 0.00 | 66 | 1012.7 |
| 20260503020025 | 47 | 238 | 0.0 | 0.0 | 0.00 | 0.00 | 0.00 | 60 | 1012.6 |
| 20260503014618 | 49 | 238 | 0.0 | 2.0 | 0.00 | 0.00 | 0.00 | 54 | 1012.5 |
| 20260503013058 | 50 | 233 | 0.0 | 3.0 | 0.00 | 0.00 | 0.00 | 52 | 1012.4 |
| 20260503011520 | 51 | 231 | 2.0 | 4.0 | 0.00 | 0.00 | 0.00 | 50 | 1012.3 |
| 20260503010003 | 52 | 231 | 1.0 | 3.0 | 0.00 | 0.00 | 0.00 | 49 | 1012.4 |
| 20260503004556 | 53 | 240 | 2.0 | 6.0 | 0.00 | 0.00 | 0.00 | 47 | 1012.5 |
| 20260503003042 | 54 | 257 | 2.0 | 6.0 | 0.00 | 0.00 | 0.00 | 46 | 1012.5 |
| 20260503001511 | 55 | 241 | 4.0 | 7.0 | 0.00 | 0.00 | 0.00 | 42 | 1012.6 |
| 20260503000109 | 55 | 257 | 5.0 | 9.0 | 0.00 | 0.00 | 0.00 | 41 | 1012.7 |
| 20260502234528 | 56 | 266 | 6.0 | 11.0 | 0.00 | 0.00 | 0.00 | 42 | 1012.7 |
| 20260502233007 | 57 | 248 | 5.0 | 12.0 | 0.00 | 0.00 | 0.00 | 38 | 1012.9 |
| 20260502231607 | 57 | 248 | 7.0 | 14.0 | 0.00 | 0.00 | 0.00 | 39 | 1012.9 |
| 20260502230048 | 56 | 169 | 6.0 | 12.0 | 0.00 | 0.00 | 0.00 | 38 | 1013.1 |
| 20260502224501 | 56 | 219 | 6.0 | 11.0 | 0.00 | 0.00 | 0.00 | 38 | 1013.3 |
| 20260502223106 | 57 | 269 | 6.0 | 11.0 | 0.00 | 0.00 | 0.00 | 37 | 1013.4 |
| 20260502221547 | 56 | 280 | 3.0 | 10.0 | 0.00 | 0.00 | 0.00 | 40 | 1013.6 |
| 20260502220011 | 57 | 227 | 8.0 | 13.0 | 0.00 | 0.00 | 0.00 | 39 | 1013.8 |
| 20260502214601 | 56 | 239 | 4.0 | 14.0 | 0.00 | 0.00 | 0.00 | 40 | 1013.8 |
| 20260502213025 | 56 | 286 | 4.0 | 11.0 | 0.00 | 0.00 | 0.00 | 43 | 1013.9 |
| 20260502211510 | 55 | 276 | 5.0 | 10.0 | 0.00 | 0.00 | 0.00 | 39 | 1014.0 |
| 20260502210117 | 55 | 227 | 7.0 | 12.0 | 0.00 | 0.00 | 0.00 | 41 | 1014.3 |
| 20260502204547 | 54 | 214 | 6.0 | 13.0 | 0.00 | 0.00 | 0.00 | 40 | 1014.5 |
| 20260502203006 | 54 | 211 | 6.0 | 11.0 | 0.00 | 0.00 | 0.00 | 39 | 1014.8 |